Content
SEND FEEDBACK

Daily
Averages
Monthly
Summary
United States of America

ST. LOUIS, MISSOURI


Home > North America > United States > Missouri
Elevation: 535 feet     Latitude: 38 45N     Longitude: 090 22W

WEATHER
 
SELECT A DAY
Number of Records: 199,017;   Date Range: 1/1/95 - 10/1/14
 
SHARE

PRINT THIS DATA

[ ← Previous Day ]
WEATHER ALMANAC - APRIL 8, 2013
[ Next Day → ]
[ °C ]   °F
Weather ElementAverageHighLow
Temperature70.5 °F79 °F (1:54 pm)62.1 °F (3:54 am)
Dewpoint54.9 °F57.9 °F (12:54 pm)52 °F (5:54 am)
Humidity58.5 %75 % (1:54 am)45 % (1:54 pm)
Barometer29.77 in29.84 in (11:54 pm)29.72 in (5:54 am)
Wind Speed8.9 mph15 mph (1:54 am)
Wind Gust24.2 mph (1:54 am)
Weather ElementAverage
Visibility10 mi
Wind DirectionSSE (164.8 °)

Weather ElementTotal
Precipitation---
Cooling Degree Days5.6 (Base 65)
Growing Degree Days20.6 (Base 50)
Averaged from 23 records on April 8, 2013
WEATHER CONDITIONS BREAKOUT
WIND DIRECTION BREAKOUT
WEATHER BY HOUR - APRIL 8, 2013
[ °C ]   °F
Local TimeTemperatureDewpointHumidityBarometerVisibilityWind DirectionWind SpeedGust SpeedPrecipitationEventsConditions
1:54 AM63.0 °F55.0 °F75 %29.75 in10.0 miSouth (190°)15.0 mph24.2 mphClear
2:54 AM63.0 °F54.0 °F72 %29.73 in10.0 miSouth (190°)11.5 mph21.9 mphClear
3:54 AM62.1 °F53.1 °F72 %29.73 in10.0 miSSW (200°)10.4 mph17.3 mphClear
4:54 AM62.1 °F53.1 °F72 %29.74 in10.0 miSSW (200°)6.9 mphClear
5:54 AM63.0 °F52.0 °F67 %29.72 in10.0 miSSW (210°)10.4 mphClear
6:54 AM62.1 °F52.0 °F70 %29.75 in10.0 miSSW (200°)8.1 mphClear
7:54 AM64.0 °F53.1 °F67 %29.75 in10.0 miSSW (210°)9.2 mphClear
8:54 AM64.9 °F54.0 °F68 %29.77 in10.0 miSW (220°)8.1 mphClear
9:54 AM69.1 °F55.0 °F61 %29.78 in10.0 miVariable6.9 mphMostly Cloudy
10:54 AM72.0 °F55.9 °F57 %29.79 in10.0 miSSW (200°)11.5 mphScattered Clouds
11:54 AM75.9 °F57.0 °F52 %29.78 in10.0 miWest (260°)6.9 mph16.1 mphClear
12:54 PM77.0 °F57.9 °F52 %29.76 in10.0 miESE (120°)4.6 mphPartly Cloudy
1:54 PM79.0 °F55.9 °F45 %29.76 in10.0 miSSW (210°)5.8 mphMostly Cloudy
2:54 PM79.0 °F57.0 °F47 %29.75 in10.0 miSE (130°)10.4 mphMostly Cloudy
3:54 PM79.0 °F55.9 °F45 %29.74 in10.0 miSouth (170°)15.0 mph21.9 mphMostly Cloudy
4:54 PM78.1 °F55.0 °F45 %29.75 in10.0 miSouth (170°)12.7 mph20.7 mphMostly Cloudy
5:54 PM75.9 °F54.0 °F46 %29.76 in10.0 miSSE (150°)11.5 mph16.1 mphMostly Cloudy
6:54 PM75.0 °F55.0 °F50 %29.78 in10.0 miSSE (160°)10.4 mphMostly Cloudy
7:54 PM73.0 °F55.0 °F53 %29.79 in10.0 miSSE (150°)5.8 mphScattered Clouds
8:54 PM72.0 °F55.0 °F55 %29.81 in10.0 miESE (120°)4.6 mphPartly Cloudy
9:54 PM72.0 °F55.0 °F55 %29.83 in10.0 miSSE (160°)8.1 mphScattered Clouds
10:54 PM71.1 °F55.9 °F59 %29.83 in10.0 miVariable5.8 mph16.1 mphMostly Cloudy
11:54 PM70.0 °F55.9 °F61 %29.84 in10.0 miSouth (170°)4.6 mphOvercast
Hourly data recorded from KSUS, located miles away from St. Louis, Missouri







STORIES FROM OUR PARTNERS